Regional Weather Roundup
Issued by NWS

Home | Current Version | Previous Version | Graphics & Text | Print | Product List | Glossary On
Versions: 1 2 3 4 5 6 7 8 9 10 11 12 13 14 15 16 17 18 19 20 21 22 23 24 25 26 27 28 29 30 31 32 33 34 35 36 37 38 39 40 41 42 43 44 45 46 47 48 49 50
000
ASUS43 KLSX 262159
RWRMO

WEATHER SUMMARY FOR MISSOURI
NATIONAL WEATHER SERVICE SPRINGFIELD MO
500 PM CDT TUE MAY 26 2015

NOTE: "FAIR" INDICATES FEW OR NO CLOUDS BELOW 12,000 FEET WITH NO
       SIGNIFICANT WEATHER AND/OR OBSTRUCTIONS TO VISIBILITY.
       CURRENT SKY AND/OR WEATHER CONDITIONS ARE NOT AVAILABLE FOR
       CHILLICOTHE AND FARMINGTON.

MOZ001>031-035>038-043-044-053-054-262300-
...NORTHERN AND WESTERN MISSOURI...

CITY           SKY/WX    TMP DP  RH WIND       PRES   REMARKS
KANSAS CTY INT MOSUNNY   76  61  59 W14       29.87F
KANSAS C DTWN  SUNNY     80  56  43 W15G26    29.87R
LEE`S SUMMIT   PTSUNNY   78  59  51 W14G26    29.88F
ST JOSEPH      MOSUNNY   75  61  61 W18G26    29.85S
KIRKSVILLE     MOSUNNY   76  60  57 SW15G23   29.83F

$$
MOZ066>068-077>081-088>096-101>105-262300-
...SOUTHWEST MISSOURI...

CITY           SKY/WX    TMP DP  RH WIND       PRES   REMARKS
SPRINGFIELD    SUNNY     77  59  53 SW14      29.97F
JOPLIN         MOSUNNY   78  63  59 S12       29.95F

$$
MOZ032>034-039>042-045>050-055>058-069>072-262300-
...CENTRAL MISSOURI...

CITY           SKY/WX    TMP DP  RH WIND       PRES   REMARKS
COLUMBIA       PTSUNNY   77  61  57 SW18      29.90F
JEFFERSON CITY SUNNY     78  59  51 SW14      29.90F
ROLLA          MOSUNNY   75  61  61 SW15      29.93F
SEDALIA        MOSUNNY   77  62  59 SW20G25   29.91F
OSAGE BEACH    PTSUNNY   79  59  50 SW13      29.94S

$$
MOZ051-052-059>065-262300-
...EAST CENTRAL MISSOURI...

CITY           SKY/WX    TMP DP  RH WIND       PRES   REMARKS
ST LOUIS INTL  MOSUNNY   80  59  48 W14G23    29.91F
SPIRIT OF STL  MOSUNNY  N/A N/A N/A W14       29.90S
ST CHARLES     SUNNY     79  59  50 SW13      29.90S

$$
MOZ072>076-082>087-097>100-106>115-262300-
...SOUTH CENTRAL AND SOUTHEAST MISSOURI...

CITY           SKY/WX    TMP DP  RH WIND       PRES   REMARKS
CAPE GIRARDEAU PTSUNNY   76  65  68 SW14      29.97F
FARMINGTON     MOSUNNY   75  59  57 SW10      30.01S
POPLAR BLUFF   PTSUNNY   76  63  64 SW13      29.97F
WEST PLAINS    MOSUNNY   76  60  57 W8        30.01S

$$


USA.gov is the U.S. government's official web portal to all federal, state and local government web resources and services.